Home   Weather   Colorado Springs   Past weeks

Flag for USA Past Weather in Colorado Springs, Colorado, USA — Yesterday and Last 2 Weeks

Now
32 °F

Scattered clouds.


Feels Like: 29 °F
Forecast: 22 / 44 °F
Wind: 3 mph from Northwest

Location: City Of Colorado Springs Municipal Airport

Current Time: Jan 17, 2017 at 12:31:29 pm

Latest Report: Jan 17, 2017 at 11:54 am


Visibility: 10 mi

Pressure: 30.15 "Hg (23.98 "Hg at 1831m altitude)

Humidity: 85%

Dew Point: 28 °F

Location of Colorado SpringsLocation

Past Weather in Colorado Springs — Graph

°F

Colorado Springs Temperature Yesterday

Maximum temperature yesterday: 34 °F (at 2:54 pm)
Minimum temperature yesterday: 29 °F (at 10:54 pm)
Average temperature yesterday: 32 °F

High & Low Weather Summary for the Past Weeks

 TemperatureHumidityPressure
High59 °F (Jan 9, 11:54 am)96% (Jan 15, 3:29 pm)30.60 "Hg (Jan 15, 3:29 pm)
Low-5 °F (Jan 6, 7:54 am)14% (Jan 2, 1:54 pm)29.40 "Hg (Jan 9, 10:54 pm)
Average27 °F63%30.06 "Hg
* Reported Jan 2 11:54 am — Jan 17 11:05 am, Colorado Springs, Weather by CustomWeather, © 2017

Note: Actual official high and low records may vary slightly from our data, if they occured in-between our weather recording intervals... More about our weather records

Advertising

Colorado Springs Weather History for the Previous 24 Hours

Scroll right to see more
 ConditionsComfort  
Time TempWeatherWind HumidityBarometerVisibility
11:05 am
Tue, Jan 17
30 °FIce fog.3 mph92%30.08 "Hg6 mi
10:54 am30 °FIce fog.No wind89%30.19 "Hg6 mi
9:54 am30 °FIce fog.No wind89%30.19 "Hg6 mi
8:54 am29 °FLow clouds.6 mph93%30.18 "Hg10 mi
8:09 am30 °FIce fog.No wind89%30.08 "Hg5 mi
7:54 am29 °FIce fog.3 mph96%30.17 "Hg2 mi
7:23 am29 °FIce fog.3 mph96%30.07 "Hg1 mi
6:54 am29 °FIce fog.3 mph96%30.15 "Hg0 mi
5:54 am29 °FIce fog.8 mph96%30.14 "Hg0 mi
4:54 am30 °FIce fog.8 mph92%30.14 "Hg0 mi
3:54 am30 °FIce fog.6 mph92%30.16 "Hg0 mi
2:54 am30 °FIce fog.9 mph92%30.17 "Hg0 mi
1:54 am29 °FIce fog.8 mph96%30.20 "Hg0 mi
12:54 am29 °FIce fog.7 mph96%30.20 "Hg1 mi
12:26 am29 °FIce fog.6 mph93%30.11 "Hg1 mi
12:21 am29 °FIce fog.6 mph93%30.11 "Hg2 mi
11:54 pm
Mon, Jan 16
29 °FPartly cloudy.5 mph89%30.22 "Hg8 mi
10:54 pm29 °FOvercast.6 mph82%30.22 "Hg10 mi
9:54 pm31 °FOvercast.5 mph76%30.23 "Hg10 mi
8:54 pm32 °FOvercast.6 mph69%30.21 "Hg10 mi
7:54 pm32 °FLight snow. Overcast.7 mph69%30.22 "Hg9 mi
6:54 pm33 °FOvercast.9 mph66%30.21 "Hg10 mi
5:54 pm33 °FMostly cloudy.16 mph66%30.19 "Hg10 mi
4:54 pm33 °FCloudy.14 mph66%30.17 "Hg10 mi
3:54 pm33 °FMore clouds than sun.20 mph66%30.14 "Hg10 mi
2:54 pm34 °FOvercast.22 mph64%30.10 "Hg10 mi
1:54 pm33 °FOvercast.21 mph70%30.08 "Hg10 mi
12:54 pm33 °FMore clouds than sun.26 mph70%30.07 "Hg10 mi
Weather by CustomWeather, © 2017

See weather overviewHow to use our weather pages